Theta_e
303 304 304 304 304 305 305 306 306 305 304 310 310 316 308 305 303 312 311 315 311 307 302 305 299 300 302 301 300 301 299 297 299 296 298 296 298 297 295 295 296 297 296 295 294 294 291 292 292 293 294 295 298 299 300 300 298 297 295 297 300 297 290 287 288 292 294 296 298 299 299 298 295 296 297 295 292 293 291 289 290 286 287 287 287 283 287
303 303 303 303 304 304 305 305 306 305 304 307 311 312 304 305 303 305 309 315 310 304 294 294 296 300 302 301 299 300 297 297 296 297 298 295 296 296 296 296 296 294 296 295 292 294 287 293 293 292 295 294 300 300 299 300 296 295 295 293 299 289 293 290 285 285 288 291 294 294 297 296 293 292 295 296 296 295 295 295 295 286 288 288 286 280 287
302 303 303 303 303 304 304 305 305 305 304 307 310 307 306 306 310 305 306 309 310 301 301 297 294 297 298 299 296 298 299 299 297 296 295 297 296 295 294 295 296 295 296 294 295 295 292 291 295 294 295 295 299 298 297 298 296 297 301 298 300 291 291 288 282 279 277 277 279 282 285 288 292 294 294 295 294 294 292 286 289 284 288 290 286 286 291
302 302 302 302 303 303 303 304 304 304 304 305 312 309 305 300 292 299 301 304 304 303 303 300 296 294 295 291 294 295 293 296 298 296 294 295 296 295 295 296 297 294 293 293 293 293 296 292 292 293 293 295 297 298 298 297 297 299 298 299 298 289 293 290 288 285 283 286 288 293 293 291 286 290 292 292 294 294 293 290 286 283 287 287 289 289 289
302 302 302 302 302 303 303 303 303 303 304 304 308 311 305 304 295 294 292 299 302 298 300 298 298 293 298 288 296 294 294 295 295 297 292 297 296 296 296 295 293 294 293 292 292 294 293 295 294 293 293 295 295 297 297 297 298 299 298 298 294 290 286 289 290 289 289 290 290 292 292 288 289 289 289 291 291 292 290 286 284 290 287 281 288 291 288
301 302 302 302 302 302 302 303 303 302 303 304 312 305 303 295 300 301 301 291 292 292 294 297 294 296 296 292 296 293 292 293 291 296 297 296 297 292 294 294 294 293 293 294 289 292 292 293 289 294 294 293 295 293 296 296 298 299 296 299 294 289 285 290 290 289 290 291 291 292 291 290 289 289 289 289 290 290 287 287 290 290 284 282 287 289 287
301 301 301 301 302 302 302 302 303 302 302 305 311 302 303 302 300 299 299 295 299 296 295 294 294 293 294 293 295 293 293 292 295 294 294 294 294 295 287 291 293 294 295 294 290 291 287 286 293 292 292 293 293 292 293 295 297 296 295 296 297 292 287 290 290 288 289 290 290 291 290 288 289 289 289 290 290 289 290 289 290 289 287 289 289 289 288
300 300 301 301 301 301 302 302 302 302 301 309 306 302 300 296 296 296 300 300 298 299 297 297 295 293 296 289 292 293 293 292 294 296 294 289 292 296 293 292 292 294 294 293 290 293 293 293 287 294 293 292 293 291 292 291 295 295 293 293 296 291 286 290 288 285 286 288 289 288 288 287 286 288 289 289 289 289 290 289 289 290 288 289 289 287 288
300 300 300 300 301 301 301 302 302 301 301 307 303 301 302 302 303 302 296 293 298 297 297 296 294 291 293 292 294 294 293 292 294 294 295 293 292 294 293 294 294 294 293 294 293 295 295 295 294 295 294 288 294 290 292 295 292 293 292 294 294 292 286 291 288 282 282 287 287 287 288 287 286 286 287 287 287 285 287 286 289 287 285 287 287 285 286
300 300 300 300 300 300 301 301 301 301 302 305 303 299 305 307 307 305 299 291 295 293 296 295 293 289 295 294 292 290 291 294 294 288 292 293 294 295 294 295 293 292 292 291 293 296 295 296 296 296 296 296 295 295 294 294 292 291 291 292 289 290 287 285 285 281 281 286 288 287 285 284 281 282 285 287 288 290 290 291 291 290 290 285 284 285 291
299 299 299 299 299 300 300 300 301 301 303 302 301 300 301 298 297 299 299 292 292 294 293 292 291 294 295 293 292 294 293 293 293 288 288 295 295 297 296 294 291 290 291 295 298 298 297 297 297 297 295 295 294 294 294 294 294 292 291 291 290 290 288 285 287 280 280 284 285 285 281 275 277 287 292 292 288 289 287 287 290 293 293 288 291 291 294
299 299 299 299 299 299 300 300 300 300 300 304 305 302 302 303 301 301 294 288 289 295 293 290 292 294 291 292 293 292 291 293 293 295 291 293 295 296 295 295 293 286 295 300 299 298 298 297 296 296 294 294 293 293 293 292 293 295 294 291 289 288 288 285 287 282 280 283 283 279 274 276 287 292 293 294 293 292 291 291 293 294 295 295 294 295 296
299 299 299 299 299 299 299 300 300 300 300 303 303 299 304 304 300 298 295 291 288 292 291 293 294 293 293 293 293 293 294 295 295 295 294 292 292 293 295 294 292 293 298 296 297 295 290 289 290 291 291 292 292 293 292 292 292 294 294 294 291 286 286 286 284 285 284 281 280 272 274 286 291 292 293 295 294 294 293 290 292 293 293 294 293 294 296
298 298 298 298 298 298 299 299 299 300 300 300 301 301 302 303 299 298 295 291 288 294 296 293 294 294 295 294 293 293 293 294 295 296 292 295 293 293 295 295 296 298 298 297 294 292 287 288 284 286 287 289 289 288 290 293 293 292 292 293 293 291 289 286 282 285 278 280 279 279 285 285 287 286 287 289 287 289 287 283 287 294 295 294 293 295 297
298 298 298 298 298 299 300 299 300 299 299 299 302 301 301 303 301 298 299 295 289 291 293 287 293 293 293 292 293 291 292 293 292 291 294 296 294 296 296 296 298 297 298 293 290 290 286 285 281 281 283 282 278 281 289 287 291 293 294 293 293 292 286 287 283 281 284 279 278 278 278 275 281 290 297 297 298 296 296 287 285 294 295 296 297 295 297
298 298 298 298 298 299 300 299 299 299 299 299 302 301 302 303 303 301 297 293 291 285 293 296 296 294 291 291 292 291 288 288 289 290 291 293 293 295 297 298 298 298 296 293 291 287 285 282 280 279 278 280 285 283 281 287 286 291 293 292 292 292 292 288 284 281 282 280 276 275 274 278 286 289 294 297 297 298 294 287 281 291 296 295 295 293 294
298 297 298 298 299 299 299 300 299 299 299 299 299 300 300 304 300 298 296 295 294 288 295 296 297 295 291 290 294 292 293 288 289 285 284 287 290 292 293 296 298 297 293 290 289 286 284 282 284 283 284 286 282 281 286 284 283 284 289 290 290 288 286 286 282 281 281 280 278 276 280 279 287 291 295 295 296 293 287 277 278 292 296 297 295 294 294
297 297 298 298 298 299 299 300 299 299 298 299 299 298 299 304 303 301 297 294 290 290 296 297 294 292 291 292 289 293 293 292 291 292 288 290 290 290 291 293 290 294 296 287 288 284 283 282 280 280 280 287 287 287 278 283 281 282 283 285 284 284 284 285 280 281 282 280 279 281 282 288 292 292 294 295 297 292 279 275 283 294 295 297 298 297 297
297 297 298 298 298 299 299 299 299 299 298 298 300 299 300 302 302 301 296 292 292 287 295 297 297 294 296 296 295 294 292 291 290 285 285 286 289 293 292 292 294 285 292 287 288 284 282 282 287 285 281 284 287 280 286 282 281 286 286 283 283 283 283 283 283 280 280 282 279 278 282 289 293 295 294 295 289 279 279 289 295 295 293 297 298 298 298
297 298 298 298 298 298 298 299 299 299 298 298 298 296 298 301 302 301 296 291 292 290 294 295 296 293 296 293 291 290 292 292 292 288 286 284 292 291 290 285 291 291 289 290 282 286 283 281 283 286 283 283 285 287 283 284 288 284 284 286 282 282 280 280 280 282 283 282 278 277 273 285 294 293 291 293 283 285 292 294 295 297 297 297 298 299 298
297 298 298 298 298 298 298 298 299 299 299 299 298 297 295 301 301 301 301 296 291 286 290 298 297 295 295 294 295 294 292 288 290 288 290 289 292 289 280 282 287 288 284 286 281 283 284 282 284 283 286 285 286 285 281 282 284 290 287 285 284 287 280 281 282 284 278 278 275 276 284 288 294 290 283 287 290 293 295 296 295 297 297 296 297 298 299
297 298 298 298 298 298 298 299 299 299 300 299 298 298 295 299 301 301 301 299 292 288 292 296 296 295 296 296 296 297 294 293 295 295 290 287 292 289 289 290 289 288 289 289 285 284 285 285 286 284 281 283 285 281 284 280 278 285 290 287 278 287 283 285 281 286 283 281 283 288 291 291 293 293 293 294 297 298 297 296 295 294 296 298 297 296 298
298 298 299 298 298 298 298 299 299 299 299 299 298 297 294 297 298 302 300 293 295 294 296 295 296 296 297 297 299 299 298 298 298 296 295 289 287 290 288 288 288 292 290 291 286 286 287 286 282 285 283 284 282 281 282 282 280 283 281 288 286 291 290 292 287 286 291 292 291 292 291 292 293 295 296 294 295 297 297 297 296 298 297 298 297 297 298
298 298 298 298 298 298 298 299 299 299 298 299 298 297 295 297 298 298 296 294 290 287 290 295 292 289 292 293 295 299 299 298 298 298 299 296 285 286 290 292 293 291 288 292 291 288 287 286 286 286 280 284 285 280 278 278 280 284 283 283 287 291 291 289 283 287 283 279 291 290 290 293 294 295 296 297 297 297 298 298 298 299 299 299 301 300 300
297 298 298 298 298 298 298 298 299 298 298 298 298 299 298 297 299 298 293 286 287 287 282 286 289 294 295 297 297 295 296 298 299 299 298 297 293 288 286 292 294 290 289 292 293 292 289 283 284 284 279 286 285 279 284 280 279 286 281 283 285 284 291 285 286 285 282 282 288 290 291 292 293 293 293 295 296 297 298 299 298 299 299 299 299 299 299
297 297 298 298 298 298 298 298 298 298 298 297 297 296 295 295 299 299 297 295 293 288 282 283 288 297 297 295 294 296 298 298 297 297 297 297 297 296 294 294 294 296 294 293 292 288 286 285 286 284 281 282 289 281 281 285 283 287 283 282 287 287 289 283 287 284 286 289 289 289 290 291 292 293 294 297 296 296 296 298 298 300 298 298 299 300 297
297 297 297 298 298 298 298 298 298 298 297 297 297 297 296 297 299 296 294 292 287 283 286 284 289 293 295 293 295 296 296 296 296 296 295 296 295 296 295 294 292 292 291 291 292 288 288 285 284 281 285 285 288 285 286 284 285 282 282 286 290 287 283 288 286 282 282 283 286 289 284 284 288 292 295 294 297 298 297 297 297 298 297 298 297 297 297
297 297 297 297 298 299 299 299 298 298 298 298 297 297 298 296 297 298 298 296 290 283 284 285 286 290 295 292 296 297 296 296 295 295 294 295 295 294 294 293 292 290 290 288 285 285 285 283 281 286 286 288 285 284 288 289 288 285 285 286 289 286 286 286 283 283 283 287 289 291 290 289 291 292 295 298 298 297 297 297 295 298 299 297 296 295 294
297 297 297 297 298 299 299 299 298 298 298 297 298 296 296 298 299 299 299 300 297 291 288 288 291 289 284 290 295 294 296 297 296 295 295 295 295 294 293 293 292 292 292 289 287 286 284 284 287 284 284 289 286 282 283 279 281 279 284 290 290 292 292 290 289 290 290 292 292 293 291 289 292 296 297 297 298 297 297 298 300 300 298 297 296 295 292
297 297 298 298 299 299 299 298 298 298 297 298 295 293 289 292 298 299 301 300 298 295 286 283 280 285 294 293 293 294 294 295 295 295 294 293 293 293 293 292 293 294 292 288 286 283 286 286 287 290 291 294 285 284 280 281 280 282 288 290 291 292 292 292 292 289 288 294 294 294 292 292 295 297 297 298 298 298 297 297 299 299 297 296 295 294 293
297 297 298 298 298 298 298 297 297 298 297 296 293 286 286 284 293 300 299 300 299 295 288 287 283 288 287 294 294 292 293 293 293 293 294 293 293 293 294 294 294 293 287 287 286 286 287 284 285 287 291 291 287 284 282 280 280 282 287 289 290 290 291 291 293 294 294 295 295 295 295 296 297 296 296 297 298 299 296 298 299 298 297 295 294 294 292
296 297 298 298 298 298 297 297 298 297 297 294 291 290 292 292 296 300 300 298 300 294 286 282 282 283 283 287 292 295 293 293 293 293 292 293 291 293 292 292 289 293 289 286 287 286 285 287 286 287 288 290 288 284 284 282 279 281 288 289 291 291 292 292 292 291 292 295 294 293 293 294 295 294 293 297 297 299 299 299 299 299 296 296 296 296 295
297 298 298 298 297 297 298 297 298 298 298 299 299 298 299 297 297 298 299 299 296 289 292 285 280 282 281 286 291 293 294 292 291 291 289 294 291 293 289 293 293 293 295 289 285 284 287 286 286 284 288 293 285 284 282 281 282 287 289 289 290 292 291 292 293 293 294 294 294 290 290 291 294 296 298 298 298 297 298 298 298 298 298 297 297 297 296
298 298 298 297 297 298 297 298 297 297 297 294 293 294 299 298 299 297 300 299 293 293 290 284 280 280 281 290 285 291 293 287 287 289 284 292 291 292 288 290 289 286 289 286 287 287 288 287 285 286 288 285 287 283 280 283 288 288 290 291 291 291 291 292 293 292 293 294 295 295 295 296 297 299 298 298 297 298 299 299 298 297 296 296 296 297 295
298 297 297 297 298 298 297 297 298 297 295 293 295 298 299 296 296 297 297 295 286 284 285 285 285 280 280 281 280 286 293 288 284 288 284 288 294 289 288 285 288 284 285 292 286 286 284 285 287 283 280 287 284 280 281 284 287 289 290 290 291 292 291 291 291 293 294 294 294 294 295 297 296 296 296 296 296 297 297 297 298 297 295 295 296 298 296
297 298 298 298 298 299 298 296 297 294 292 293 293 297 296 297 297 299 300 299 293 285 284 284 284 281 281 277 278 284 292 286 288 288 288 287 286 291 288 285 280 284 290 287 284 287 284 289 285 281 285 281 280 282 284 288 288 289 290 289 288 292 291 291 292 293 294 295 294 295 295 295 294 294 294 295 296 297 297 297 297 297 296 295 297 297 295
297 298 298 298 299 297 293 291 295 295 294 297 297 297 297 297 299 299 296 294 296 296 286 283 282 282 282 281 284 286 288 280 287 284 285 284 282 286 285 284 281 285 284 283 283 282 285 292 285 280 281 280 282 287 289 290 289 288 289 291 291 292 292 293 294 293 292 293 293 294 294 293 293 295 294 295 296 297 296 295 295 294 294 294 295 293 295
298 298 298 295 293 288 288 289 294 297 296 296 296 295 295 294 288 289 289 287 291 291 288 289 283 284 287 284 280 289 286 282 287 281 282 285 282 282 285 281 281 283 278 280 282 288 286 284 282 281 283 287 289 290 289 290 289 290 292 293 293 294 293 293 293 292 290 289 289 290 291 293 293 294 294 294 294 293 291 293 296 297 297 293 294 296 295
298 297 295 294 290 287 287 291 300 297 296 298 297 290 287 290 287 284 284 286 287 284 288 285 282 285 284 281 283 290 286 282 281 282 278 284 281 277 283 277 283 283 279 280 282 291 281 282 282 282 282 286 286 288 290 293 293 295 296 296 295 294 294 294 294 293 292 290 290 292 292 290 291 292 294 294 294 295 296 296 296 297 293 294 293 294 294
295 290 288 289 288 290 296 298 299 296 295 289 290 288 283 287 283 280 287 282 282 284 286 281 286 286 286 282 282 282 290 284 279 278 280 282 289 279 283 281 282 280 275 276 280 289 280 277 282 281 281 284 284 287 290 292 292 293 293 293 295 294 295 294 294 294 294 294 294 293 294 294 293 292 292 292 292 293 294 296 298 295 296 295 294 295 295
292 291 290 287 291 294 295 297 298 294 289 286 285 286 284 280 285 285 282 280 280 281 287 285 286 284 286 286 285 280 288 290 288 287 284 279 286 286 281 277 285 278 276 276 284 285 282 280 280 280 281 284 285 287 289 292 291 291 294 294 294 294 295 294 294 294 294 293 292 292 292 292 292 291 291 291 292 294 295 296 296 296 296 296 296 296 297
292 292 293 295 294 295 295 293 291 287 287 287 281 277 281 281 283 282 283 277 278 282 284 284 280 281 282 284 284 286 285 290 287 285 283 278 284 282 279 281 282 277 274 282 284 282 281 276 277 278 284 284 286 287 289 290 292 292 292 294 294 294 293 292 293 294 294 293 292 292 292 292 291 290 290 291 292 293 294 295 295 296 296 295 296 297 297
297 297 297 293 291 289 290 284 288 286 278 277 278 274 279 276 279 277 279 283 286 283 283 289 287 288 289 289 285 288 284 289 284 284 281 279 285 284 280 279 277 273 279 285 282 278 277 277 277 280 285 286 286 286 290 291 291 291 290 291 292 293 293 293 292 292 293 292 292 291 291 290 289 289 290 290 291 290 291 293 293 293 293 293 293 293 296
295 294 290 288 285 286 286 275 286 281 279 279 276 272 276 275 278 280 278 280 283 281 284 281 282 282 279 286 284 283 285 287 288 285 283 285 281 278 277 275 276 282 285 280 280 276 276 279 280 282 286 288 289 289 290 290 290 289 288 289 291 291 291 291 292 291 292 292 292 292 291 290 288 289 289 289 289 288 289 291 292 292 293 293 292 292 293
288 286 286 284 280 284 280 273 285 279 273 276 279 278 278 276 278 280 279 284 284 281 285 285 284 285 282 287 286 286 284 280 286 280 277 282 278 280 277 276 281 282 278 275 277 278 279 277 282 283 282 286 288 290 289 288 286 287 287 288 289 290 290 291 291 291 291 291 291 291 290 290 289 287 287 287 288 289 289 288 290 290 291 291 292 292 292
285 283 282 277 274 280 279 275 277 275 280 282 280 282 281 282 282 282 285 287 284 284 283 284 286 287 284 287 281 280 284 284 280 281 282 282 276 274 281 284 283 276 276 276 274 274 276 279 282 282 284 285 287 288 288 287 288 289 289 288 289 289 290 291 291 292 292 292 292 292 291 291 290 289 287 287 288 288 289 289 290 290 290 290 290 291 292
285 286 284 282 276 280 283 275 277 281 282 283 284 284 284 284 285 285 286 286 284 286 286 288 288 287 283 283 283 283 284 283 278 281 283 277 276 279 283 278 274 276 273 272 273 275 278 281 283 284 284 285 286 289 289 289 290 291 291 291 291 291 291 291 292 292 292 292 292 291 291 291 291 290 289 288 288 288 289 290 290 290 289 289 290 292 292
281 286 284 275 274 279 277 280 285 285 286 285 285 286 286 287 285 284 286 287 288 288 287 286 283 285 284 288 286 281 280 282 278 280 282 280 281 278 276 275 275 276 278 275 276 280 281 283 283 284 284 286 289 290 290 290 291 291 290 290 290 290 291 291 291 291 292 292 292 291 291 292 291 290 290 289 288 288 289 289 289 290 289 289 290 291 291
286 284 279 279 281 281 281 284 284 282 284 285 286 285 285 284 284 284 287 289 288 287 288 286 284 284 280 284 281 279 277 280 275 276 280 279 274 272 272 270 272 272 277 279 279 281 282 283 284 284 285 286 289 290 291 291 291 291 290 290 290 291 291 291 291 292 292 292 292 292 292 292 292 291 291 291 289 289 290 290 289 289 289 288 289 289 290
282 282 284 281 280 282 285 285 283 281 284 285 284 283 285 284 284 285 289 287 286 287 286 285 286 283 282 281 276 277 277 280 278 278 277 275 275 276 275 272 274 274 277 281 281 282 284 284 285 285 285 287 288 289 290 291 291 291 290 291 291 291 291 292 291 292 292 292 292 292 292 292 291 291 291 290 291 291 291 291 290 289 289 289 289 288 288
286 283 283 286 281 281 283 278 279 279 281 282 283 283 283 283 283 285 290 288 286 284 283 280 281 280 278 277 276 272 275 280 277 276 276 275 278 276 274 273 276 279 281 284 285 285 284 284 284 284 284 287 289 289 291 291 290 291 291 291 291 291 291 292 292 292 292 292 292 289 292 292 292 292 292 292 292 291 290 291 291 291 290 290 290 289 288
282 279 280 284 286 285 285 284 284 283 283 284 284 285 285 283 285 286 288 287 285 281 279 282 281 279 277 273 276 278 281 278 275 277 275 278 281 276 276 278 279 281 283 284 284 285 285 283 283 283 283 286 289 291 292 291 290 290 290 291 291 291 292 292 292 292 292 292 292 292 292 292 292 292 292 291 291 289 288 287 289 290 290 290 289 289 289
Wind_Speed
28 28 27 27 27 28 28 28 26 25 28 12 9 9 5 5 4 4 7 7 8 8 7 1 2 4 4 5 6 0 5 6 2 4 3 6 2 5 6 5 5 5 5 6 6 6 7 6 7 9 5 7 4 4 4 7 9 7 6 11 5 4 3 8 14 14 17 19 17 18 19 18 17 16 16 14 15 15 15 14 11 12 13 13 11 13 13
27 27 28 27 28 28 28 29 28 25 21 11 11 8 5 4 4 2 6 5 5 6 4 4 2 3 2 2 6 1 6 5 6 6 3 4 3 4 5 5 6 9 4 5 7 6 5 4 6 8 8 4 6 4 3 6 7 6 5 6 6 4 3 8 10 10 10 11 12 14 13 13 12 11 9 10 11 12 12 11 9 10 13 17 13 15 11
27 27 27 27 28 29 29 29 29 27 26 18 7 7 6 6 3 2 2 5 4 4 5 4 4 5 5 6 7 6 6 3 3 6 8 1 6 5 6 5 5 4 5 7 7 8 8 7 6 9 9 6 5 3 3 4 7 7 10 5 6 7 8 7 9 10 11 10 7 7 5 6 6 8 9 9 13 15 10 10 9 13 14 19 14 13 13
26 27 27 26 27 28 29 29 29 27 25 24 10 6 7 4 3 5 3 5 2 2 2 2 6 4 5 5 7 6 7 4 4 4 8 6 6 6 9 7 6 8 8 8 8 9 9 9 6 7 7 8 9 3 6 4 8 6 5 4 6 5 9 10 11 11 13 14 13 13 12 11 10 13 15 15 15 15 14 12 12 14 13 14 15 16 15
27 27 26 26 26 28 28 29 29 29 27 22 9 7 4 4 3 3 4 6 3 2 1 3 3 2 4 3 3 5 5 5 3 7 5 3 3 6 6 6 6 4 6 7 9 9 10 9 10 10 11 9 9 9 7 8 11 1 3 5 6 8 9 13 15 19 21 21 21 19 16 16 19 20 19 20 20 18 17 14 16 16 15 18 14 15 13
25 26 28 27 26 27 28 28 29 29 29 27 9 4 6 3 2 2 4 4 3 4 0 6 6 4 4 5 3 7 8 6 5 3 6 5 5 4 3 5 8 7 7 7 6 7 8 7 6 8 9 9 10 11 13 13 7 8 9 8 9 7 10 13 14 19 21 20 21 19 18 18 19 21 21 23 22 20 16 15 20 19 15 18 17 20 16
24 24 25 26 27 27 27 28 29 30 30 23 7 7 3 3 2 1 1 4 3 3 7 7 7 9 7 5 4 7 7 7 5 3 4 4 5 6 5 7 9 7 6 5 8 8 7 5 7 8 10 11 9 10 11 12 13 12 10 10 8 8 11 13 14 19 20 21 19 18 18 16 18 21 24 24 23 20 21 22 21 22 22 21 20 19 22
24 24 23 24 26 27 26 28 28 29 31 20 6 8 6 5 6 2 2 6 7 2 4 5 5 7 4 2 5 5 5 7 7 4 4 3 6 4 6 8 9 8 10 9 10 9 11 12 10 10 11 10 9 10 11 10 10 12 10 8 9 10 9 9 10 12 17 18 17 18 19 19 20 22 24 24 21 20 21 21 17 20 17 20 19 18 17
23 23 24 23 23 25 25 26 27 29 30 7 8 6 7 4 4 3 6 7 2 3 5 5 5 5 5 5 5 3 5 7 4 6 5 8 8 7 9 10 11 10 11 11 12 9 11 11 13 11 10 10 10 10 7 11 10 10 11 9 8 8 9 11 12 13 15 15 14 15 17 19 20 22 24 19 17 16 14 14 10 12 14 16 14 16 17
21 22 23 23 23 23 23 24 26 27 28 7 7 6 7 5 3 3 4 5 1 7 4 6 4 5 2 6 6 5 7 4 4 5 8 9 8 7 8 9 9 9 11 11 11 7 8 10 12 12 13 14 14 13 14 12 12 9 11 9 9 11 10 10 10 13 16 17 13 15 11 12 16 22 15 13 19 20 19 19 20 19 15 14 16 16 16
20 21 22 22 22 22 22 22 23 25 17 10 8 6 7 7 6 6 5 6 5 6 5 6 7 2 5 5 7 6 6 7 4 4 2 0 3 3 5 5 7 8 9 11 11 10 11 11 13 14 15 17 17 16 16 19 17 16 12 10 10 11 12 10 8 11 14 16 11 10 10 15 19 8 9 14 14 14 16 13 14 17 16 13 15 17 19
20 20 20 21 20 21 21 21 21 22 18 10 7 4 5 6 7 6 4 6 6 5 5 6 6 5 4 6 5 6 7 6 7 6 9 8 9 10 11 10 7 8 8 7 8 10 13 14 16 17 19 20 21 22 22 21 19 17 16 15 12 12 11 11 10 10 13 12 10 11 16 19 10 13 15 15 17 18 19 19 19 19 18 19 20 20 21
19 19 19 19 19 19 20 20 20 20 20 12 7 5 6 6 6 6 4 5 7 7 5 5 5 6 5 6 6 7 6 7 7 7 9 11 11 10 7 8 10 10 9 11 11 12 12 13 13 14 16 17 18 21 23 25 23 21 18 17 16 13 13 10 11 10 10 12 11 14 18 12 14 15 15 15 14 16 15 16 17 19 20 19 20 19 20
18 18 18 17 18 18 18 19 19 18 19 16 8 5 5 7 6 5 3 4 6 6 5 8 10 8 4 6 6 8 8 8 8 8 10 8 11 10 9 8 9 8 9 8 9 9 9 8 8 7 9 10 12 13 16 19 19 20 21 20 18 19 16 13 14 11 15 13 15 17 14 17 18 12 8 7 9 5 6 10 9 13 13 15 17 16 13
17 16 17 17 17 17 18 18 17 17 18 19 9 4 4 5 6 5 5 4 7 9 9 6 6 8 4 6 6 6 6 6 6 6 8 7 7 7 7 7 6 8 7 7 7 7 7 7 9 8 8 7 8 8 8 10 9 13 15 16 17 18 17 12 15 12 14 15 16 14 13 16 12 11 3 4 4 4 3 1 10 14 14 9 8 11 11
16 16 15 16 16 17 17 16 15 16 16 18 9 5 3 5 5 5 5 5 5 6 4 7 5 7 7 7 6 7 6 5 7 8 8 8 10 9 10 7 4 7 8 7 7 7 7 8 10 9 9 8 10 9 7 8 10 9 11 13 15 16 17 15 16 14 14 15 15 13 13 12 10 5 5 1 1 5 2 4 11 5 7 8 8 8 12
15 15 15 15 16 16 15 15 14 14 14 15 8 6 3 5 4 5 6 5 5 8 9 8 5 5 6 6 8 7 6 6 7 5 6 6 7 8 9 9 7 7 9 8 8 8 9 10 10 11 10 11 10 10 12 11 12 12 13 16 18 17 12 12 15 17 16 15 14 15 9 11 8 8 6 7 9 5 3 8 6 5 7 3 7 9 8
15 14 15 15 15 15 14 14 14 12 12 15 10 6 5 4 5 6 5 6 6 9 6 4 6 5 6 8 7 7 6 6 9 7 7 8 9 9 8 3 5 7 8 8 7 7 9 9 10 10 12 9 11 11 12 10 12 11 12 11 10 10 11 12 16 14 16 15 14 13 10 8 9 10 10 7 5 5 9 12 7 9 11 10 8 11 9
15 14 14 15 15 14 14 14 13 12 11 12 9 6 2 3 5 5 5 6 6 6 4 2 4 6 8 7 8 7 7 6 6 6 6 6 5 9 6 7 4 4 7 6 7 7 8 9 8 9 10 10 8 11 10 11 11 11 13 13 13 13 10 11 11 14 14 12 12 12 9 3 2 3 7 5 7 8 11 7 11 13 14 13 10 11 10
15 15 15 14 14 15 15 13 13 13 12 12 10 6 7 6 4 4 5 6 6 9 10 11 10 11 8 9 8 8 8 8 7 6 6 7 2 4 6 7 8 7 7 7 9 8 9 10 9 8 11 11 9 4 9 14 14 14 12 14 12 11 9 11 12 9 10 10 14 11 13 2 4 6 7 1 6 7 8 10 13 11 13 13 12 9 10
14 15 15 14 13 13 13 13 12 12 12 11 10 7 6 2 2 3 3 5 6 8 7 0 2 7 8 8 8 9 9 10 9 8 8 8 6 4 6 4 2 2 3 4 7 7 5 9 8 8 7 9 8 6 9 9 12 13 15 12 12 9 10 10 10 7 12 10 10 8 2 1 7 3 6 4 8 12 13 11 13 11 12 13 14 11 9
15 15 15 15 14 14 13 13 13 13 12 11 11 7 7 4 4 3 3 4 6 8 10 15 15 13 13 13 12 11 11 11 11 10 9 8 7 8 8 10 9 7 5 5 6 7 7 6 5 8 9 8 6 11 11 12 12 10 11 10 11 4 12 9 13 5 7 8 10 9 12 13 11 12 13 14 13 12 13 11 8 8 7 9 10 13 12
15 16 15 14 14 14 14 14 14 12 12 11 9 6 7 7 5 3 4 7 7 10 11 13 12 12 12 14 12 9 10 10 10 10 10 9 9 9 10 10 11 7 7 7 10 10 10 9 10 8 10 9 9 11 11 11 12 9 12 9 13 14 12 10 8 10 11 14 16 16 15 14 15 13 10 11 10 11 8 5 8 6 6 5 7 12 13
15 15 16 15 13 14 14 14 13 12 11 10 9 8 7 7 7 6 6 7 6 9 10 10 8 5 5 5 1 4 7 8 9 9 8 9 10 9 9 9 8 5 5 9 2 6 6 7 9 7 12 9 7 11 12 13 12 10 13 13 10 12 8 6 8 10 12 11 8 13 13 13 12 13 12 12 13 14 6 3 5 8 9 9 11 12 13
16 15 15 14 14 14 14 13 13 12 12 11 9 8 7 8 7 5 5 5 4 6 7 6 9 8 7 1 3 6 7 8 7 9 9 10 12 12 11 8 5 7 10 8 2 7 7 9 7 7 12 10 7 12 10 12 12 10 12 12 11 7 7 4 9 11 10 14 14 15 18 18 19 15 14 8 10 13 10 9 9 8 9 9 10 11 11
15 16 15 15 14 14 15 15 14 12 11 11 10 8 7 7 6 5 6 6 6 4 7 7 6 3 4 9 10 9 12 10 10 11 12 13 13 14 15 13 13 9 9 8 8 9 9 10 10 10 11 11 7 10 11 11 14 14 15 15 12 15 13 12 8 10 13 15 16 16 17 19 20 17 12 2 4 4 10 13 14 11 10 10 9 9 10
16 16 15 14 15 15 15 15 14 13 12 11 9 8 8 8 8 8 7 6 6 6 7 8 7 7 8 13 12 10 10 9 9 10 11 13 14 14 14 14 14 12 11 10 9 9 8 9 9 11 10 10 9 12 12 13 13 12 14 14 12 13 14 14 13 12 12 12 12 11 9 8 11 9 10 5 3 7 6 9 12 9 5 6 9 9 10
16 16 16 15 15 16 16 17 15 14 13 13 11 9 8 9 8 8 7 7 7 7 8 9 10 11 13 16 8 6 7 8 9 10 11 12 14 14 14 14 13 12 10 9 10 8 9 10 12 8 8 10 10 11 11 12 12 13 14 14 11 13 16 13 13 11 11 10 12 8 12 16 14 13 13 9 7 10 11 9 12 9 4 6 7 10 11
16 15 16 16 17 18 17 16 16 15 15 13 9 9 9 9 9 8 7 7 8 7 7 9 10 11 8 9 12 10 9 9 8 9 10 12 14 13 13 14 13 12 11 9 10 8 8 10 8 10 9 4 2 9 7 11 11 13 13 12 12 13 14 16 18 18 18 15 12 12 12 12 15 15 12 13 11 10 11 9 8 7 5 5 5 6 6
16 16 17 18 18 18 18 17 17 16 14 9 7 6 6 3 4 2 3 5 5 4 6 7 8 5 9 9 11 9 9 8 10 11 12 12 12 12 12 12 12 11 9 7 7 10 8 8 9 11 12 10 10 7 8 10 12 14 15 16 14 13 11 13 14 17 14 12 11 12 12 15 15 14 12 12 12 8 9 10 8 6 3 3 4 5 2
16 17 18 19 18 18 18 19 18 16 12 7 5 4 4 2 5 2 3 1 2 4 5 5 8 8 10 8 9 9 9 9 9 10 11 11 11 11 11 11 10 9 10 9 9 10 7 10 9 11 11 11 10 9 10 11 13 14 16 15 14 13 10 10 12 14 13 13 12 13 13 13 12 13 14 11 11 4 5 11 6 1 3 1 2 2 1
18 19 19 19 19 20 20 19 18 14 7 6 7 4 5 3 4 1 1 1 3 4 4 6 6 5 5 6 6 6 9 9 9 7 7 7 9 7 9 8 8 8 8 9 7 6 8 9 10 12 12 8 5 7 11 12 14 16 16 15 15 13 14 12 14 16 14 13 12 14 14 13 12 13 9 6 5 9 9 9 6 0 8 4 4 3 4
19 20 20 20 22 21 20 19 17 9 5 4 6 10 2 4 4 3 5 4 3 2 3 5 7 5 5 6 9 10 6 5 7 5 7 3 7 5 7 8 8 9 6 7 8 9 9 10 10 13 14 10 9 8 9 13 16 17 17 17 16 15 14 12 14 13 12 11 11 13 13 14 11 12 9 6 8 11 10 9 6 1 2 4 4 4 7
20 20 22 22 21 19 17 15 12 8 9 6 5 6 3 7 4 5 3 3 3 4 3 4 5 6 7 6 10 2 2 7 7 5 7 3 4 6 8 8 5 8 7 9 7 7 6 9 11 11 8 8 6 9 12 15 16 17 17 15 14 12 14 12 9 11 11 12 10 12 14 12 11 9 9 9 10 9 7 8 6 5 5 5 5 5 4
21 22 21 23 20 16 16 15 7 6 5 4 3 3 5 5 6 3 3 3 3 3 3 5 4 8 8 6 7 6 3 7 7 7 8 6 4 9 7 8 5 7 5 3 6 7 9 8 6 9 10 8 7 9 11 15 16 15 14 14 11 7 11 10 10 12 9 8 10 12 10 11 9 9 9 9 9 7 8 8 8 6 6 5 5 7 10
21 23 23 20 21 17 5 4 5 5 4 3 4 6 5 8 9 8 6 6 5 5 5 5 4 8 6 9 8 2 5 9 7 8 8 6 7 5 4 5 10 8 8 7 9 7 9 7 7 9 6 8 10 9 10 12 16 15 14 9 4 7 7 10 11 12 11 6 11 10 8 9 8 8 9 8 7 7 8 8 7 7 6 6 4 9 9
24 23 24 23 13 7 5 2 1 2 5 7 9 14 14 8 5 6 7 5 5 5 6 6 8 8 6 7 4 2 5 9 6 7 8 7 8 4 7 7 10 5 5 7 8 10 9 4 5 10 9 10 11 12 13 13 10 11 14 12 11 12 13 11 9 12 15 11 11 11 6 7 5 6 5 6 6 7 7 8 8 8 8 2 7 6 9
25 28 14 6 4 3 2 1 3 3 5 7 6 5 4 4 3 3 3 5 4 5 5 5 9 7 6 5 8 6 7 9 8 8 7 5 6 6 4 5 6 3 9 7 8 8 7 4 7 9 10 10 13 15 12 11 8 6 9 10 8 9 7 6 6 7 10 7 9 7 7 5 6 6 6 7 8 7 3 4 6 7 5 9 6 5 7
20 8 5 6 4 3 3 6 6 1 5 4 4 3 3 2 2 3 3 3 2 5 3 5 7 5 5 7 8 6 6 8 9 8 9 5 6 8 5 8 3 5 8 8 5 1 6 5 7 8 9 8 6 6 9 5 9 5 5 5 5 4 1 4 3 2 4 6 7 10 9 8 9 8 7 7 7 7 7 6 4 6 8 10 11 10 7
7 7 4 5 4 5 7 4 4 6 4 4 2 3 4 2 4 4 1 4 5 2 2 4 2 6 6 8 9 10 4 6 9 10 9 9 2 7 4 6 6 5 8 9 4 3 4 6 5 6 7 3 4 2 7 8 7 4 4 5 4 2 2 4 8 5 8 10 11 11 11 10 9 7 7 6 7 6 4 4 4 8 10 12 10 9 6
7 7 7 5 7 7 8 9 7 4 2 3 2 2 2 4 2 1 2 5 5 3 3 6 6 7 5 7 7 9 6 5 6 5 6 9 3 4 6 7 2 6 8 8 2 1 4 7 7 7 4 5 4 5 8 4 1 1 4 4 5 3 4 7 7 8 10 10 10 10 10 10 9 8 7 5 5 5 6 4 9 9 13 12 11 8 6
9 9 9 10 9 9 8 5 2 2 3 2 2 4 2 3 3 4 3 4 4 3 4 4 6 6 8 8 9 8 6 3 5 4 5 7 2 4 6 6 3 4 6 4 6 7 6 7 7 6 4 2 2 3 5 1 3 5 8 9 8 7 8 8 9 9 10 10 11 10 10 12 11 10 9 7 7 8 7 11 15 14 13 12 9 8 8
20 17 9 7 5 4 2 5 2 1 2 2 2 4 3 4 4 4 4 2 2 3 4 5 6 7 7 5 7 5 6 5 3 2 4 5 3 2 5 5 4 7 6 4 4 7 7 7 6 4 0 1 1 2 5 6 6 8 7 7 6 8 9 8 9 10 10 10 11 10 10 11 11 11 10 9 9 11 12 12 13 14 13 12 13 12 8
8 7 5 2 3 3 1 4 1 1 3 2 2 4 4 5 4 2 5 4 3 5 4 6 8 9 9 4 7 6 4 2 2 2 5 3 4 5 4 6 7 5 5 6 6 7 7 2 6 7 8 3 3 5 7 8 8 8 9 9 10 11 10 8 9 10 10 9 9 9 9 9 10 11 11 11 11 13 12 13 14 15 14 13 12 11 12
5 4 3 3 3 2 0 2 2 3 4 3 3 6 5 7 6 6 6 3 5 6 7 7 7 8 9 7 5 3 1 5 2 5 4 4 6 5 6 7 5 4 6 7 6 6 4 5 7 5 8 7 6 7 8 6 5 6 6 8 10 9 9 9 9 9 9 9 9 9 9 9 10 10 10 10 11 12 14 13 12 12 12 11 12 13 13
4 4 4 3 3 3 3 4 2 4 3 2 4 4 7 7 7 8 5 5 7 7 8 8 8 8 8 6 6 6 4 4 5 3 4 4 6 6 4 5 4 7 5 5 7 6 6 7 8 9 8 6 3 5 4 5 6 6 8 8 7 8 9 10 10 10 9 10 10 10 11 11 11 11 11 13 14 14 14 14 14 13 12 12 13 12 12
4 2 3 2 4 4 2 4 5 3 4 6 6 6 6 7 7 7 6 5 6 5 7 6 7 7 8 7 6 4 3 3 5 4 3 6 5 5 3 5 5 4 7 7 7 8 8 8 9 8 6 7 1 7 7 6 5 6 7 7 8 7 8 8 9 9 10 12 13 12 12 13 13 12 12 14 14 14 13 14 14 14 13 12 10 10 12
5 2 2 2 3 3 5 5 5 6 5 5 6 6 6 5 6 6 5 5 6 7 7 6 7 5 5 2 5 7 6 3 5 4 2 5 4 5 4 3 4 4 2 5 8 8 9 9 9 8 8 7 3 7 7 8 9 9 9 9 9 8 9 10 11 11 12 14 15 14 15 14 14 14 14 14 14 12 12 12 11 12 11 11 11 11 11
3 3 4 4 3 3 5 5 7 8 6 3 4 5 5 6 7 7 5 4 5 6 6 6 5 5 6 4 6 5 6 3 4 3 3 4 3 3 4 7 7 7 4 5 8 8 8 8 7 7 7 7 1 5 7 8 8 9 9 11 11 10 10 10 12 12 13 13 14 15 14 14 14 15 15 14 14 13 12 12 13 12 11 12 12 11 10
3 4 3 5 6 6 7 7 7 7 6 5 3 3 3 5 7 6 4 5 2 6 4 6 3 4 5 5 5 5 5 3 4 4 5 6 3 4 5 7 5 7 8 7 8 9 8 6 5 6 5 5 3 6 6 6 7 7 9 9 9 9 9 11 11 12 12 13 14 14 15 14 14 14 15 15 14 13 13 13 12 11 10 9 8 7 8
2 4 5 5 7 7 5 7 6 7 7 6 5 5 5 7 6 6 4 6 6 6 5 5 3 5 5 5 5 5 3 3 5 4 4 5 3 5 6 8 8 8 8 7 7 8 6 5 4 5 7 3 8 8 8 9 9 9 9 9 10 10 10 11 12 12 13 13 13 13 14 14 13 13 13 12 13 13 14 13 12 11 10 9 9 8 8
3 5 6 5 6 8 8 7 7 7 7 7 7 6 5 6 6 5 2 5 6 5 5 3 4 4 4 5 4 4 4 4 4 4 6 3 1 5 6 8 10 8 7 7 6 5 5 3 3 3 5 7 1 6 8 8 9 8 8 9 9 9 10 10 10 11 11 10 11 11 12 12 12 11 11 11 11 11 10 10 9 9 9 8 8 8 8
Wind_Direction
5 4 1 357 354 352 350 350 350 353 350 354 350 314 281 1 19 64 360 349 305 290 276 262 264 275 26 344 264 296 232 266 337 289 272 287 230 280 271 278 287 267 283 293 297 290 280 284 275 291 284 276 73 87 319 43 288 283 264 262 85 340 264 266 262 266 261 262 262 263 264 267 265 252 249 255 257 265 272 276 292 287 288 274 267 257 268
4 3 0 357 355 353 351 350 350 349 0 346 312 294 348 338 6 141 67 342 310 282 309 317 332 346 24 312 304 181 299 305 277 268 295 283 301 293 304 297 246 268 273 269 267 284 282 257 259 256 239 264 70 18 336 20 284 302 333 288 41 309 239 267 282 283 276 264 249 246 238 244 251 263 268 287 298 292 298 296 275 270 262 261 265 266 264
4 3 0 358 356 354 352 350 348 348 347 348 315 327 333 296 196 261 58 10 324 326 10 331 319 327 306 314 296 281 241 180 308 323 299 297 267 284 260 266 308 270 266 268 275 272 265 272 262 290 308 289 119 80 266 243 278 292 47 21 318 278 286 282 270 275 278 271 264 274 301 325 336 321 308 283 274 280 289 267 263 259 259 260 258 265 272
6 4 2 0 359 355 353 350 347 345 344 348 332 327 300 0 323 359 319 15 327 105 9 336 319 312 310 303 288 283 284 198 180 267 267 275 291 274 285 286 260 268 272 262 258 261 246 248 261 260 247 240 230 186 124 304 268 56 65 325 285 278 282 273 266 268 267 274 290 309 320 296 288 285 276 275 271 269 266 271 268 262 270 270 268 275 283
9 8 5 3 1 357 354 351 347 344 339 342 330 297 346 300 0 343 335 316 194 355 1 355 306 312 10 288 357 288 275 294 260 134 293 150 274 289 262 274 279 280 281 275 276 270 275 262 260 252 261 274 273 274 305 314 288 320 170 251 268 259 262 253 258 257 262 273 277 283 284 280 275 274 272 272 270 268 267 266 267 278 286 272 269 276 283
9 9 7 5 3 0 356 353 349 344 337 334 317 292 5 326 63 338 34 305 324 327 103 358 320 290 247 268 296 279 283 274 260 203 247 308 266 269 242 243 251 263 275 284 269 278 273 269 263 272 264 280 283 276 236 229 203 166 243 238 240 259 261 260 259 260 266 271 277 283 283 279 279 279 276 272 270 268 265 263 267 273 267 272 286 291 283
9 8 7 6 5 3 0 355 350 345 338 328 323 354 76 20 339 87 359 271 329 332 335 317 304 292 273 296 281 272 276 271 282 302 303 281 272 252 272 272 273 256 260 276 282 277 274 265 277 275 284 287 297 284 297 292 274 245 246 250 235 248 251 263 265 273 269 267 271 276 277 279 277 273 271 268 267 267 268 268 267 265 267 272 275 275 276
9 8 6 5 5 5 3 358 353 345 340 323 43 25 343 27 336 355 253 258 281 266 294 282 272 272 147 240 259 296 282 281 281 246 249 267 279 296 281 276 275 268 268 272 277 282 279 288 286 293 295 278 266 278 281 285 278 282 266 250 246 251 254 240 261 272 272 270 272 272 270 269 268 266 264 264 266 271 269 266 265 267 269 267 267 271 274
9 9 8 7 5 5 6 1 357 347 340 7 23 52 14 10 359 333 310 298 254 254 251 258 274 288 231 222 247 244 279 279 299 290 305 281 269 267 275 293 292 289 280 265 259 282 313 296 277 273 262 264 261 266 275 295 294 261 258 256 257 245 274 278 270 269 269 266 265 268 269 268 267 265 260 262 267 264 258 260 260 261 264 266 270 266 264
8 9 8 8 8 6 6 4 0 354 334 6 2 28 358 311 164 254 293 288 66 289 260 251 252 255 355 10 336 305 290 297 338 308 287 265 273 301 310 292 281 278 282 280 281 347 327 299 286 279 277 273 279 277 272 258 258 263 260 256 258 253 263 264 263 263 264 271 274 277 290 289 272 255 257 262 254 253 260 260 259 255 255 259 259 258 262
8 8 8 7 7 7 6 6 4 1 352 22 357 18 2 5 338 325 288 279 271 247 293 297 270 19 359 295 291 288 279 280 257 259 261 98 254 215 221 248 262 274 282 297 323 327 306 300 285 275 268 264 259 253 253 257 255 254 258 257 252 256 255 258 260 262 268 275 276 275 267 257 251 275 267 249 256 254 254 256 256 255 249 257 259 265 270
7 7 7 7 7 6 6 6 3 4 359 355 337 8 19 333 308 289 304 294 297 300 270 284 313 359 318 301 290 287 284 279 268 270 272 282 300 310 312 305 287 270 275 312 308 301 299 286 269 258 254 253 255 256 256 256 253 246 245 248 253 252 249 252 251 257 266 272 265 256 246 247 272 275 267 270 270 274 271 266 262 263 264 265 266 267 267
6 6 5 7 7 6 6 6 2 0 359 348 343 3 8 335 303 312 314 299 287 294 298 307 339 295 300 303 282 275 282 283 283 274 273 278 280 282 271 275 281 286 304 294 305 301 295 292 285 276 269 264 259 256 250 245 244 244 248 247 249 246 243 250 249 255 265 259 252 254 247 264 274 274 277 277 275 268 275 272 270 272 271 273 274 277 280
4 4 4 4 6 6 4 4 2 360 356 351 342 1 347 335 338 321 328 310 291 308 325 301 268 246 277 300 298 294 292 273 266 265 267 260 268 273 279 268 278 304 295 296 283 289 291 285 289 291 276 268 261 254 246 246 248 246 242 240 240 247 252 247 255 243 252 254 254 258 282 278 270 274 272 277 279 293 294 285 281 283 291 288 283 285 298
1 2 2 1 0 358 358 0 1 359 356 347 324 335 349 353 336 323 320 291 289 298 271 260 345 7 325 287 275 281 271 280 282 275 272 273 271 265 281 294 279 252 262 278 270 262 267 289 280 277 271 257 260 262 268 265 254 243 246 246 242 235 240 242 251 249 250 258 263 263 261 261 258 258 79 12 8 32 33 310 289 277 271 287 308 308 309
357 358 357 357 357 357 357 0 0 357 357 347 326 351 2 9 326 304 295 295 307 294 53 25 360 331 307 295 304 301 292 294 277 273 272 252 237 241 224 222 266 308 289 259 256 264 266 265 264 267 265 264 269 279 268 276 267 254 251 250 247 249 247 244 244 255 250 249 255 255 257 262 277 305 145 4 331 256 227 276 271 328 18 11 321 318 305
354 353 351 351 352 352 357 359 356 0 352 353 340 334 352 18 327 331 314 284 261 267 311 316 351 305 295 274 248 246 266 287 320 320 303 303 305 323 312 284 268 247 248 261 263 260 253 246 254 262 268 268 266 267 280 268 271 272 267 262 259 250 249 248 247 248 247 251 253 256 255 269 284 284 179 184 200 126 261 269 277 66 298 314 320 320 313
350 350 347 348 350 349 352 357 351 354 353 346 331 329 320 350 333 312 281 274 284 287 285 345 306 278 284 342 327 323 324 280 259 256 260 271 278 260 271 333 326 266 258 250 242 252 254 257 258 262 267 271 286 287 267 284 269 266 265 264 262 259 251 241 249 253 256 254 257 264 264 282 332 349 343 32 351 295 279 267 309 357 327 329 329 319 331
348 347 345 345 348 347 347 351 351 344 349 340 332 313 288 342 328 311 301 287 276 265 314 328 254 277 286 291 281 294 285 297 313 304 295 296 293 13 356 270 232 275 193 230 244 254 260 258 258 260 268 271 260 261 271 257 259 264 269 266 264 261 265 265 259 250 255 260 267 264 275 290 159 20 338 340 293 253 262 325 329 318 311 312 316 316 320
345 343 343 343 346 344 340 345 346 344 339 342 330 322 312 306 318 313 305 300 293 285 291 296 300 292 305 298 296 282 285 263 249 256 266 273 49 25 291 274 202 217 247 254 257 258 264 264 265 268 264 268 265 321 277 266 267 267 271 273 270 269 267 257 250 249 244 248 263 274 270 74 345 25 294 48 279 291 318 306 299 305 300 309 312 310 318
339 339 340 342 339 341 334 335 343 342 338 333 332 312 313 321 295 289 294 300 292 288 285 172 351 309 307 292 289 285 277 274 289 278 276 270 314 336 257 282 357 169 263 258 262 257 261 269 268 266 279 281 284 289 273 292 283 274 269 271 271 271 261 258 257 247 268 257 247 247 333 43 185 155 276 257 240 265 285 292 290 307 320 315 309 312 320
336 336 339 335 335 333 335 332 337 338 334 331 321 304 287 299 275 293 294 265 263 262 280 305 306 293 283 276 273 271 272 274 274 278 274 275 266 255 272 284 278 270 272 292 272 266 253 265 281 278 273 276 279 267 283 278 269 277 273 276 273 205 249 263 277 270 261 271 284 295 298 295 297 291 289 288 300 305 299 310 316 310 302 315 313 306 309
334 335 337 335 331 333 332 334 332 333 327 330 315 302 301 305 307 328 282 273 265 274 282 277 275 274 269 258 247 256 265 266 258 245 251 259 264 256 256 259 259 257 257 254 264 278 290 296 280 290 286 269 279 284 278 265 273 277 278 271 274 286 285 287 278 270 273 261 258 275 278 278 285 289 298 301 297 283 268 294 301 311 304 292 287 289 312
334 335 335 332 328 330 334 331 330 328 327 324 319 306 300 302 298 299 281 266 267 289 288 256 245 263 294 332 48 205 216 232 242 258 255 246 251 256 255 257 276 283 266 258 7 279 284 289 282 288 277 276 280 269 275 275 274 296 291 281 267 265 294 308 277 303 301 266 254 263 278 290 292 287 280 259 235 248 263 299 284 306 315 318 313 323 322
330 331 331 332 329 331 330 326 323 328 326 323 309 290 276 270 261 255 272 284 289 301 302 312 292 295 320 326 276 270 249 257 256 237 238 235 240 249 256 268 257 270 268 275 269 265 253 259 268 258 264 268 269 273 274 276 273 279 282 278 281 275 91 276 265 258 247 270 290 298 300 296 287 276 276 310 3 350 336 323 310 301 307 312 326 328 322
329 324 328 328 328 327 327 324 325 320 324 322 317 300 298 292 302 281 266 277 279 267 279 291 308 333 241 261 271 300 311 290 259 241 231 231 231 236 252 269 274 265 264 263 258 256 268 269 264 270 276 277 268 272 273 286 296 293 276 274 278 289 288 269 263 268 263 261 256 258 271 273 266 266 269 39 344 4 315 316 308 301 319 335 341 348 346
327 323 322 324 323 322 321 321 320 323 317 315 303 297 285 281 271 264 258 258 277 263 224 249 282 295 322 317 305 288 263 248 249 253 255 251 249 245 245 248 258 263 259 259 254 260 261 262 270 269 267 277 296 282 284 281 277 280 280 275 278 271 257 260 261 265 271 275 287 300 281 284 291 308 310 357 33 312 296 285 296 319 23 329 344 338 342
325 323 321 319 321 322 322 321 321 318 319 314 296 286 278 271 265 258 249 242 236 265 307 307 298 308 311 275 282 289 286 270 265 258 253 251 248 246 248 253 255 258 259 259 258 243 248 258 263 265 268 273 278 273 277 280 276 265 259 267 265 264 267 273 273 276 275 285 283 283 279 284 281 286 297 334 328 303 307 323 296 298 354 354 341 338 337
325 322 321 323 323 321 320 321 320 319 315 309 295 288 272 250 242 246 243 235 240 256 266 274 284 286 293 343 334 285 265 263 259 255 255 254 252 248 246 248 252 252 257 260 265 272 264 264 267 273 269 273 260 275 289 277 271 266 269 273 266 266 274 272 275 275 278 278 275 273 279 294 299 303 310 302 304 301 291 283 291 335 359 20 5 1 346
319 320 321 321 320 320 320 319 320 318 316 302 298 285 283 219 157 237 225 247 237 239 266 286 293 290 323 307 287 293 288 270 267 267 265 263 260 258 253 249 247 251 258 258 263 258 250 259 262 258 262 271 268 278 267 267 267 268 274 275 275 278 293 300 281 262 263 276 290 294 292 285 285 291 298 299 296 323 323 306 303 313 356 41 24 5 342
317 320 322 321 321 320 318 317 315 316 305 268 254 265 280 267 116 92 61 279 286 276 276 278 279 304 286 277 286 283 282 278 267 268 275 283 279 270 264 258 247 230 244 236 225 242 266 266 268 266 268 251 253 257 262 271 272 273 269 278 285 299 285 254 275 284 287 280 284 286 284 283 286 290 283 304 345 20 263 261 274 172 146 116 87 50 271
321 320 321 319 318 319 316 314 315 309 275 248 233 253 17 12 42 69 36 296 355 266 276 289 293 284 305 287 279 298 294 306 308 294 276 252 264 257 269 262 260 235 243 260 262 260 235 244 251 261 264 262 249 269 266 266 267 267 275 281 288 284 284 304 300 293 281 279 278 274 271 270 269 274 301 24 278 263 280 297 305 300 151 182 160 169 205
321 319 317 318 315 313 313 310 304 288 282 329 353 325 329 148 46 304 241 273 251 246 258 275 278 304 277 310 319 299 320 286 268 268 279 259 276 274 254 240 257 264 232 254 248 252 254 257 257 257 253 239 238 238 246 252 254 264 279 284 283 287 284 251 249 260 282 290 282 272 270 274 283 289 300 296 283 283 288 296 310 291 220 208 223 186 177
320 319 316 313 311 309 307 306 297 295 268 254 227 226 154 110 115 51 309 223 268 271 250 263 276 271 278 304 295 10 72 305 307 325 302 309 301 287 285 292 286 290 280 267 265 267 274 266 256 261 275 261 242 255 251 255 260 271 277 282 285 287 285 290 297 287 291 297 308 287 275 275 286 293 287 278 277 279 288 294 289 264 252 253 229 200 199
320 314 314 310 308 310 297 275 252 225 247 266 289 104 122 80 340 301 256 207 234 228 219 241 244 274 282 283 279 300 336 298 302 312 295 308 307 289 298 281 274 259 262 227 264 245 258 257 270 270 259 261 259 252 258 265 270 273 276 280 302 315 294 306 312 309 310 306 308 296 313 305 280 273 275 280 286 304 304 292 289 287 274 252 223 178 168
312 311 305 304 303 298 280 224 246 281 259 293 46 95 9 316 271 251 227 232 245 285 271 268 268 275 295 292 303 329 355 298 301 300 298 302 286 266 273 286 287 270 280 266 267 272 260 239 237 247 257 260 249 253 266 275 277 276 277 275 273 292 305 300 290 282 285 278 271 260 262 271 279 268 272 291 304 304 297 295 291 288 273 255 207 154 152
307 302 301 295 273 223 248 310 344 287 346 341 320 319 308 293 238 235 228 237 221 223 262 288 280 281 301 304 299 298 337 304 330 312 313 305 305 314 289 282 277 302 274 259 258 258 272 345 298 271 255 251 258 264 271 276 290 302 304 303 296 291 292 298 338 342 309 289 275 259 256 254 262 297 323 309 298 297 304 308 309 293 295 340 122 142 154
305 296 286 283 323 304 292 41 52 4 310 275 274 262 205 198 207 193 202 227 203 204 231 249 265 289 289 288 292 331 299 299 329 313 310 313 309 299 308 287 289 291 272 273 271 280 283 242 236 249 258 268 278 278 285 299 282 234 270 284 287 289 301 326 321 304 304 342 356 13 10 347 344 345 341 331 323 321 314 283 282 285 99 112 103 117 155
289 298 339 335 305 323 344 338 67 236 291 265 230 264 231 199 244 237 226 209 186 239 229 240 272 295 301 299 296 312 322 318 307 312 301 334 319 305 314 299 311 279 279 287 297 67 264 244 251 246 263 267 279 353 341 296 274 277 291 291 302 295 267 225 238 8 50 45 28 25 21 13 2 0 355 349 335 319 314 305 296 99 121 123 127 134 159
355 334 338 314 324 344 330 317 149 257 277 282 206 243 279 224 244 285 302 285 272 252 156 262 293 294 304 305 318 311 347 313 314 312 320 310 299 300 321 306 304 287 281 281 302 103 276 291 298 294 285 344 1 301 289 293 296 342 17 350 339 43 321 9 33 37 56 55 42 31 23 22 19 14 5 349 335 323 307 281 124 137 134 131 133 135 140
346 334 318 321 335 321 312 314 306 273 260 263 263 238 242 284 266 287 289 287 282 289 280 301 311 301 313 310 307 301 339 316 295 301 294 293 318 287 284 284 335 282 283 278 337 259 281 292 293 288 334 23 343 333 307 315 46 40 7 39 62 59 24 51 54 51 62 59 53 44 38 37 38 32 23 8 345 9 24 80 109 107 118 123 118 113 120
324 308 304 296 291 285 281 277 264 276 240 235 248 267 279 290 277 260 217 261 322 322 320 343 309 319 320 330 316 312 301 340 316 294 296 298 339 301 298 284 268 272 282 326 340 295 283 288 295 309 37 8 313 299 294 1 49 23 50 59 50 54 67 70 70 70 66 66 61 55 48 44 43 40 31 31 29 30 77 85 90 87 78 61 65 93 98
284 271 253 279 288 289 280 286 221 252 275 258 248 285 258 261 295 300 308 295 13 296 321 304 300 314 288 289 286 300 312 340 318 317 303 299 323 279 283 290 283 269 296 335 303 283 278 280 306 12 74 94 247 310 17 47 48 58 63 70 77 80 74 79 87 81 78 71 68 59 53 44 39 37 38 42 52 50 42 57 67 67 58 51 44 29 45
307 298 254 273 291 281 276 275 162 156 269 221 235 254 279 288 288 260 272 308 315 287 330 321 325 324 315 335 314 320 306 225 185 274 280 294 295 291 278 279 281 306 309 275 279 283 279 321 35 353 346 62 69 51 47 55 65 78 69 68 76 74 66 67 86 90 86 83 78 75 66 50 42 38 33 35 43 51 52 55 53 55 51 48 41 39 18
316 322 325 303 260 266 210 289 231 175 243 267 261 280 294 296 307 305 309 341 300 308 320 310 314 310 313 325 311 282 329 307 335 281 284 305 284 286 288 286 297 283 284 287 283 285 321 9 351 4 348 345 59 64 67 62 63 74 76 74 78 83 88 86 84 85 80 76 76 72 70 61 50 46 36 40 42 47 50 49 44 47 48 39 41 38 34
311 317 322 312 292 265 234 255 242 271 264 245 270 293 299 307 310 304 326 326 301 310 309 319 312 312 308 327 314 316 315 308 307 306 323 302 297 287 278 297 303 290 284 284 308 331 1 349 347 342 341 335 44 76 83 79 84 98 105 94 88 84 90 97 98 93 91 91 85 80 74 70 60 52 47 44 46 47 48 47 47 50 46 45 40 40 37
290 265 279 282 271 262 218 261 270 289 308 299 303 306 307 308 317 314 310 309 301 318 309 311 315 319 310 311 307 293 289 300 294 307 291 287 297 307 302 293 293 291 304 324 332 340 342 347 343 339 337 313 244 124 118 121 117 113 104 105 106 111 117 113 111 107 104 99 91 82 76 72 69 66 60 57 53 52 54 59 56 52 54 54 47 41 44
288 293 291 266 254 244 242 251 284 286 275 273 289 292 293 303 299 298 322 319 308 307 308 326 311 320 297 282 276 295 309 310 308 282 291 302 289 270 293 275 295 315 351 334 334 342 336 341 334 329 319 326 65 117 127 126 118 109 108 106 108 110 111 109 105 101 99 94 91 87 83 80 77 73 71 69 66 57 56 58 58 57 57 55 45 42 40
299 290 283 270 271 290 286 299 298 289 296 284 273 283 297 300 302 314 328 312 309 315 323 308 315 313 295 329 300 303 305 330 287 297 298 272 278 299 318 315 313 315 1 352 343 339 340 339 336 325 323 319 190 123 118 121 119 115 107 109 113 113 105 96 97 97 93 90 89 90 89 86 82 81 82 81 78 73 72 69 67 63 62 59 59 51 42
253 245 240 249 266 265 258 262 269 283 292 288 282 286 304 302 306 314 308 293 321 306 303 284 245 255 297 310 299 306 301 313 307 306 289 293 305 321 305 298 318 333 338 350 337 340 349 340 331 333 333 319 127 114 121 118 121 111 111 103 100 104 104 103 96 94 91 90 88 88 89 88 83 81 81 83 86 92 89 84 81 78 68 60 51 47 45
221 252 257 255 263 285 300 291 295 294 293 298 308 317 316 303 311 314 337 314 313 305 288 298 341 314 304 292 295 299 332 343 284 285 306 311 336 315 313 309 323 333 336 332 334 339 338 333 345 332 330 321 135 148 144 122 118 118 117 114 109 102 97 94 94 91 92 91 90 90 89 89 91 92 90 90 90 88 86 85 86 85 83 78 75 69 63
243 246 256 255 250 254 262 278 285 286 294 298 291 290 289 299 317 310 306 296 302 291 304 333 309 301 294 287 304 309 304 286 287 307 292 309 16 314 319 319 315 322 331 323 330 332 336 331 335 319 300 297 65 90 99 104 107 104 104 101 101 100 98 97 94 94 93 93 92 90 90 89 89 86 89 90 91 87 85 83 80 79 82 84 85 82 80